| time (UTC) | temp C | wind direction | speed KPH | gust KPH | rain 1hr cm | rain 24hr cm | rain mn cm | humidity % | barometer mb |
| 20260507152414 | 13 | 71 | 3.2 | 11.3 | 0.00 | 0.00 | 0.00 | 56 | 1014.8 |
| 20260507151913 | 13 | 193 | 3.2 | 11.3 | 0.00 | 0.00 | 0.00 | 56 | 1014.9 |
| 20260507151414 | 13 | 70 | 3.2 | 12.9 | 0.00 | 0.00 | 0.00 | 56 | 1014.9 |
| 20260507150914 | 13 | 133 | 3.2 | 12.9 | 0.00 | 0.00 | 0.00 | 56 | 1014.9 |
| 20260507150414 | 13 | 221 | 3.2 | 9.7 | 0.00 | 0.00 | 0.00 | 56 | 1014.9 |
| 20260507145416 | 13 | 78 | 3.2 | 8.0 | 0.00 | 0.00 | 0.00 | 57 | 1015.0 |
| 20260507144413 | 13 | 115 | 3.2 | 12.9 | 0.00 | 0.00 | 0.00 | 55 | 1015.0 |
| 20260507143410 | 13 | 123 | 3.2 | 11.3 | 0.00 | 0.00 | 0.00 | 55 | 1015.0 |
| 20260507142410 | 13 | 96 | 3.2 | 11.3 | 0.00 | 0.00 | 0.00 | 56 | 1015.1 |
| 20260507141911 | 13 | 260 | 3.2 | 11.3 | 0.00 | 0.00 | 0.00 | 56 | 1015.2 |
| 20260507141409 | 13 | 0 | 3.2 | 11.3 | 0.00 | 0.00 | 0.00 | 56 | 1015.2 |
| 20260507140909 | 13 | 114 | 4.8 | 11.3 | 0.00 | 0.00 | 0.00 | 56 | 1015.2 |
| 20260507140409 | 13 | 239 | 4.8 | 11.3 | 0.00 | 0.00 | 0.00 | 57 | 1015.3 |
| 20260507135910 | 13 | 124 | 3.2 | 11.3 | 0.00 | 0.00 | 0.00 | 57 | 1015.3 |
| 20260507135409 | 13 | 215 | 3.2 | 9.7 | 0.00 | 0.00 | 0.00 | 55 | 1015.3 |
| 20260507134908 | 13 | 152 | 3.2 | 9.7 | 0.00 | 0.00 | 0.00 | 55 | 1015.3 |
| 20260507134408 | 13 | 117 | 3.2 | 9.7 | 0.00 | 0.00 | 0.00 | 55 | 1015.3 |
| 20260507133908 | 13 | 54 | 3.2 | 9.7 | 0.00 | 0.00 | 0.00 | 56 | 1015.3 |
| 20260507133411 | 13 | 260 | 3.2 | 12.9 | 0.00 | 0.00 | 0.00 | 57 | 1015.3 |
| 20260507132904 | 13 | 209 | 4.8 | 12.9 | 0.00 | 0.00 | 0.00 | 57 | 1015.4 |
| 20260507132404 | 13 | 125 | 4.8 | 16.1 | 0.00 | 0.00 | 0.00 | 55 | 1015.3 |
| 20260507131906 | 13 | 104 | 4.8 | 16.1 | 0.00 | 0.00 | 0.00 | 56 | 1015.4 |
| 20260507131404 | 13 | 122 | 4.8 | 12.9 | 0.00 | 0.00 | 0.00 | 57 | 1015.3 |
| 20260507130904 | 13 | 151 | 4.8 | 12.9 | 0.00 | 0.00 | 0.00 | 56 | 1015.3 |
| 20260507130405 | 13 | 208 | 3.2 | 11.3 | 0.00 | 0.00 | 0.00 | 55 | 1015.4 |
| 20260507125905 | 13 | 115 | 3.2 | 12.9 | 0.00 | 0.00 | 0.00 | 53 | 1015.3 |
| 20260507125405 | 13 | 0 | 4.8 | 14.5 | 0.00 | 0.00 | 0.00 | 54 | 1015.4 |
| 20260507124904 | 13 | 203 | 4.8 | 14.5 | 0.00 | 0.00 | 0.00 | 54 | 1015.3 |
| 20260507124403 | 13 | 211 | 4.8 | 12.9 | 0.00 | 0.00 | 0.00 | 54 | 1015.3 |
| 20260507123903 | 13 | 201 | 4.8 | 12.9 | 0.00 | 0.00 | 0.00 | 55 | 1015.4 |
| 20260507123404 | 13 | 214 | 4.8 | 11.3 | 0.00 | 0.00 | 0.00 | 55 | 1015.4 |
| 20260507122904 | 13 | 183 | 3.2 | 9.7 | 0.00 | 0.00 | 0.00 | 57 | 1015.4 |
| 20260507122404 | 13 | 56 | 4.8 | 12.9 | 0.00 | 0.00 | 0.00 | 56 | 1015.3 |
| 20260507121904 | 13 | 213 | 4.8 | 12.9 | 0.00 | 0.00 | 0.00 | 57 | 1015.4 |
| 20260507121404 | 12 | 54 | 4.8 | 12.9 | 0.00 | 0.00 | 0.00 | 58 | 1015.5 |
| 20260507120903 | 12 | 237 | 4.8 | 12.9 | 0.00 | 0.00 | 0.00 | 57 | 1015.5 |
| 20260507120359 | 13 | 220 | 4.8 | 11.3 | 0.00 | 0.00 | 0.00 | 58 | 1015.6 |
| 20260507115900 | 12 | 204 | 3.2 | 11.3 | 0.00 | 0.00 | 0.00 | 60 | 1015.6 |
| 20260507115358 | 13 | 19 | 3.2 | 11.3 | 0.00 | 0.00 | 0.00 | 59 | 1015.6 |
| 20260507114858 | 12 | 210 | 3.2 | 9.7 | 0.00 | 0.00 | 0.00 | 61 | 1015.7 |
| 20260507114354 | 12 | 230 | 4.8 | 12.9 | 0.00 | 0.00 | 0.00 | 61 | 1015.7 |
| 20260507113855 | 12 | 81 | 4.8 | 12.9 | 0.00 | 0.00 | 0.00 | 60 | 1015.6 |
| 20260507113355 | 12 | 121 | 3.2 | 11.3 | 0.00 | 0.00 | 0.00 | 60 | 1015.6 |
| 20260507112855 | 12 | 132 | 4.8 | 12.9 | 0.00 | 0.00 | 0.00 | 62 | 1015.7 |
| 20260507112354 | 12 | 142 | 4.8 | 12.9 | 0.00 | 0.00 | 0.00 | 60 | 1015.7 |
| 20260507111854 | 12 | 173 | 4.8 | 11.3 | 0.00 | 0.00 | 0.00 | 63 | 1015.7 |
| 20260507111355 | 12 | 212 | 4.8 | 11.3 | 0.00 | 0.00 | 0.00 | 62 | 1015.8 |
| 20260507110853 | 12 | 192 | 4.8 | 11.3 | 0.00 | 0.00 | 0.00 | 61 | 1015.8 |
| 20260507110405 | 12 | 248 | 4.8 | 14.5 | 0.00 | 0.00 | 0.00 | 63 | 1015.8 |
| 20260507105853 | 12 | 85 | 6.4 | 14.5 | 0.00 | 0.00 | 0.00 | 62 | 1015.9 |
| 20260507105353 | 12 | 153 | 4.8 | 9.7 | 0.00 | 0.00 | 0.00 | 63 | 1015.8 |
| 20260507104849 | 12 | 152 | 6.4 | 16.1 | 0.00 | 0.00 | 0.00 | 65 | 1015.9 |
| 20260507104349 | 12 | 129 | 4.8 | 16.1 | 0.00 | 0.00 | 0.00 | 63 | 1016.0 |
| 20260507103849 | 12 | 103 | 3.2 | 11.3 | 0.00 | 0.00 | 0.00 | 67 | 1016.0 |
| 20260507103348 | 12 | 222 | 4.8 | 11.3 | 0.00 | 0.00 | 0.00 | 67 | 1016.1 |
| 20260507102848 | 12 | 104 | 3.2 | 9.7 | 0.00 | 0.00 | 0.00 | 66 | 1016.1 |
| 20260507102347 | 12 | 179 | 3.2 | 8.0 | 0.00 | 0.00 | 0.00 | 67 | 1016.1 |
| 20260507101848 | 11 | 121 | 3.2 | 14.5 | 0.00 | 0.00 | 0.00 | 67 | 1016.1 |
| 20260507101348 | 11 | 62 | 4.8 | 14.5 | 0.00 | 0.00 | 0.00 | 69 | 1016.1 |
| 20260507100848 | 11 | 123 | 4.8 | 12.9 | 0.00 | 0.00 | 0.00 | 69 | 1016.1 |
| 20260507100347 | 11 | 173 | 4.8 | 12.9 | 0.00 | 0.00 | 0.00 | 70 | 1016.1 |
| 20260507095843 | 11 | 81 | 4.8 | 12.9 | 0.00 | 0.00 | 0.00 | 70 | 1016.1 |
| 20260507095342 | 11 | 90 | 4.8 | 12.9 | 0.00 | 0.00 | 0.00 | 71 | 1016.1 |
| 20260507094842 | 11 | 119 | 6.4 | 12.9 | 0.00 | 0.00 | 0.00 | 71 | 1016.2 |
| 20260507094342 | 11 | 146 | 4.8 | 11.3 | 0.00 | 0.00 | 0.00 | 71 | 1016.1 |
| 20260507093602 | 11 | 251 | 4.8 | 11.3 | 0.00 | 0.00 | 0.00 | 70 | 1016.0 |
| 20260507092843 | 11 | 166 | 3.2 | 9.7 | 0.00 | 0.00 | 0.00 | 71 | 1016.0 |
| 20260507091843 | 10 | 186 | 3.2 | 9.7 | 0.00 | 0.00 | 0.00 | 73 | 1016.0 |
| 20260507090839 | 10 | 215 | 3.2 | 11.3 | 0.00 | 0.00 | 0.00 | 74 | 1016.1 |
| 20260507085837 | 10 | 162 | 4.8 | 12.9 | 0.00 | 0.00 | 0.00 | 76 | 1016.1 |
| 20260507085337 | 10 | 164 | 4.8 | 11.3 | 0.00 | 0.00 | 0.00 | 75 | 1016.0 |
| 20260507084838 | 10 | 144 | 4.8 | 14.5 | 0.00 | 0.00 | 0.00 | 75 | 1016.0 |
| 20260507084337 | 10 | 142 | 4.8 | 14.5 | 0.00 | 0.00 | 0.00 | 76 | 1016.0 |
| 20260507083838 | 9 | 0 | 3.2 | 12.9 | 0.00 | 0.00 | 0.00 | 76 | 1015.9 |
| 20260507083338 | 9 | 210 | 3.2 | 12.9 | 0.00 | 0.00 | 0.00 | 75 | 1015.9 |
| 20260507082838 | 9 | 234 | 4.8 | 11.3 | 0.00 | 0.00 | 0.00 | 76 | 1015.9 |
| 20260507082338 | 8 | 199 | 6.4 | 12.9 | 0.00 | 0.00 | 0.00 | 77 | 1015.9 |
| 20260507081338 | 8 | 107 | 4.8 | 14.5 | 0.00 | 0.00 | 0.00 | 77 | 1015.8 |
| 20260507075334 | 8 | 67 | 3.2 | 11.3 | 0.00 | 0.00 | 0.00 | 79 | 1015.8 |
| 20260507074556 | 9 | 114 | 1.6 | 8.0 | 0.00 | 0.00 | 0.00 | 79 | 1015.7 |
| 20260507073834 | 8 | 210 | 1.6 | 8.0 | 0.00 | 0.00 | 0.00 | 80 | 1015.7 |
| 20260507073334 | 8 | 0 | 1.6 | 8.0 | 0.00 | 0.00 | 0.00 | 82 | 1015.7 |
| 20260507072834 | 8 | 180 | 3.2 | 9.7 | 0.00 | 0.00 | 0.00 | 83 | 1015.7 |
| 20260507072334 | 8 | 157 | 3.2 | 9.7 | 0.00 | 0.00 | 0.00 | 84 | 1015.7 |
| 20260507071834 | 8 | 138 | 3.2 | 9.7 | 0.00 | 0.00 | 0.00 | 85 | 1015.7 |
| 20260507071333 | 7 | 147 | 1.6 | 8.0 | 0.00 | 0.00 | 0.00 | 86 | 1015.7 |
| 20260507070829 | 7 | 66 | 3.2 | 8.0 | 0.00 | 0.00 | 0.00 | 87 | 1015.7 |
| 20260507070328 | 7 | 118 | 3.2 | 8.0 | 0.00 | 0.00 | 0.00 | 88 | 1015.7 |
| 20260507065829 | 7 | 191 | 3.2 | 8.0 | 0.00 | 0.00 | 0.00 | 90 | 1015.6 |
| 20260507065329 | 7 | 178 | 3.2 | 8.0 | 0.00 | 0.00 | 0.00 | 91 | 1015.6 |
| 20260507064829 | 7 | 154 | 1.6 | 8.0 | 0.00 | 0.00 | 0.00 | 92 | 1015.7 |
| 20260507064329 | 6 | 0 | 1.6 | 8.0 | 0.00 | 0.00 | 0.00 | 94 | 1015.6 |
| 20260507063828 | 6 | 0 | 1.6 | 6.4 | 0.00 | 0.00 | 0.00 | 95 | 1015.6 |
| 20260507063330 | 6 | 219 | 1.6 | 8.0 | 0.00 | 0.00 | 0.00 | 95 | 1015.6 |
| 20260507062829 | 5 | 221 | 3.2 | 8.0 | 0.00 | 0.00 | 0.00 | 96 | 1015.6 |
| 20260507062332 | 5 | 250 | 3.2 | 8.0 | 0.00 | 0.00 | 0.00 | 96 | 1015.5 |
| 20260507061831 | 5 | 0 | 1.6 | 4.8 | 0.00 | 0.00 | 0.00 | 97 | 1015.5 |
| 20260507061330 | 5 | 119 | 1.6 | 4.8 | 0.00 | 0.00 | 0.00 | 97 | 1015.4 |
| 20260507060831 | 5 | 198 | 1.6 | 4.8 | 0.00 | 0.00 | 0.00 | 97 | 1015.4 |
| 20260507060331 | 5 | 0 | 1.6 | 4.8 | 0.00 | 0.00 | 0.00 | 97 | 1015.4 |
| 20260507055816 | 5 | 202 | 0.0 | 1.6 | 0.00 | 0.00 | 0.00 | 97 | 1015.4 |
| 20260507055316 | 4 | 0 | 0.0 | 3.2 | 0.00 | 0.00 | 0.00 | 97 | 1015.3 |
| 20260507054804 | 4 | 0 | 0.0 | 3.2 | 0.00 | 0.00 | 0.00 | 97 | 1015.2 |
| 20260507054304 | 3 | 0 | 0.0 | 0.0 | 0.00 | 0.00 | 0.00 | 97 | 1015.2 |
| 20260507053804 | 3 | 0 | 0.0 | 0.0 | 0.00 | 0.00 | 0.00 | 97 | 1015.3 |
| 20260507053305 | 3 | 0 | 0.0 | 0.0 | 0.00 | 0.00 | 0.00 | 97 | 1015.3 |
| 20260507052803 | 3 | 0 | 0.0 | 0.0 | 0.00 | 0.00 | 0.00 | 97 | 1015.3 |
| 20260507052306 | 3 | 0 | 0.0 | 0.0 | 0.00 | 0.00 | 0.00 | 97 | 1015.3 |
| 20260507051806 | 3 | 0 | 0.0 | 0.0 | 0.00 | 0.00 | 0.00 | 97 | 1015.3 |
| 20260507051304 | 3 | 0 | 0.0 | 0.0 | 0.00 | 0.00 | 0.00 | 97 | 1015.2 |
| 20260507050804 | 3 | 0 | 0.0 | 0.0 | 0.00 | 0.00 | 0.00 | 97 | 1015.2 |
| 20260507050305 | 2 | 0 | 0.0 | 0.0 | 0.00 | 0.00 | 0.00 | 97 | 1015.2 |
| 20260507045559 | 2 | 0 | 0.0 | 0.0 | 0.00 | 0.00 | 0.00 | 97 | 1015.2 |
| 20260507045046 | 2 | 0 | 0.0 | 0.0 | 0.00 | 0.00 | 0.00 | 96 | 1015.2 |
| 20260507044546 | 2 | 0 | 0.0 | 0.0 | 0.00 | 0.00 | 0.00 | 96 | 1015.2 |
| 20260507044046 | 2 | 0 | 0.0 | 0.0 | 0.00 | 0.00 | 0.00 | 96 | 1015.1 |
| 20260507043546 | 2 | 0 | 0.0 | 0.0 | 0.00 | 0.00 | 0.00 | 96 | 1015.1 |
| 20260507043046 | 2 | 0 | 0.0 | 0.0 | 0.00 | 0.00 | 0.00 | 96 | 1015.0 |
| 20260507042546 | 2 | 0 | 0.0 | 0.0 | 0.00 | 0.00 | 0.00 | 96 | 1015.0 |
| 20260507042046 | 2 | 0 | 0.0 | 0.0 | 0.00 | 0.00 | 0.00 | 96 | 1015.0 |
| 20260507041546 | 2 | 0 | 0.0 | 0.0 | 0.00 | 0.00 | 0.00 | 96 | 1015.0 |
| 20260507041252 | 2 | 0 | 0.0 | 0.0 | 0.00 | 0.00 | 0.00 | 96 | 1015.0 |
| 20260507040748 | 2 | 0 | 0.0 | 1.6 | 0.00 | 0.00 | 0.00 | 96 | 1015.0 |
| 20260507035743 | 2 | 0 | 0.0 | 0.0 | 0.00 | 0.00 | 0.00 | 96 | 1015.1 |
| 20260507035237 | 2 | 0 | 0.0 | 0.0 | 0.00 | 0.00 | 0.00 | 96 | 1015.1 |
| 20260507034738 | 2 | 0 | 0.0 | 0.0 | 0.00 | 0.00 | 0.00 | 96 | 1015.1 |
| 20260507033745 | 1 | 0 | 0.0 | 0.0 | 0.00 | 0.00 | 0.00 | 96 | 1015.2 |
| 20260507033019 | 1 | 0 | 0.0 | 0.0 | 0.00 | 0.00 | 0.00 | 96 | 1015.3 |
| 20260507032519 | 2 | 0 | 0.0 | 0.0 | 0.00 | 0.00 | 0.00 | 96 | 1015.3 |
| 20260507032021 | 2 | 0 | 0.0 | 0.0 | 0.00 | 0.00 | 0.00 | 96 | 1015.3 |
| 20260507031520 | 2 | 0 | 0.0 | 1.6 | 0.00 | 0.00 | 0.00 | 96 | 1015.4 |
| 20260507031017 | 2 | 0 | 0.0 | 1.6 | 0.00 | 0.00 | 0.00 | 96 | 1015.3 |
| 20260507030516 | 2 | 0 | 0.0 | 0.0 | 0.00 | 0.00 | 0.00 | 96 | 1015.3 |
| 20260507030017 | 2 | 0 | 0.0 | 0.0 | 0.00 | 0.00 | 0.00 | 96 | 1015.3 |
| 20260507025517 | 2 | 0 | 0.0 | 0.0 | 0.00 | 0.00 | 0.00 | 95 | 1015.4 |
| 20260507025017 | 2 | 0 | 0.0 | 0.0 | 0.00 | 0.00 | 0.00 | 96 | 1015.4 |
| 20260507024517 | 2 | 0 | 0.0 | 0.0 | 0.00 | 0.00 | 0.00 | 96 | 1015.4 |
| 20260507024016 | 2 | 0 | 0.0 | 0.0 | 0.00 | 0.00 | 0.00 | 95 | 1015.3 |
| 20260507023515 | 2 | 0 | 0.0 | 0.0 | 0.00 | 0.00 | 0.00 | 95 | 1015.3 |
| 20260507023014 | 2 | 0 | 0.0 | 0.0 | 0.00 | 0.00 | 0.00 | 95 | 1015.3 |
| 20260507022514 | 2 | 0 | 0.0 | 0.0 | 0.00 | 0.00 | 0.00 | 95 | 1015.2 |
| 20260507022013 | 2 | 0 | 0.0 | 0.0 | 0.00 | 0.00 | 0.00 | 95 | 1015.3 |
| 20260507021513 | 2 | 0 | 0.0 | 0.0 | 0.00 | 0.00 | 0.00 | 95 | 1015.3 |
| 20260507021013 | 2 | 0 | 0.0 | 0.0 | 0.00 | 0.00 | 0.00 | 95 | 1015.3 |
| 20260507020508 | 2 | 0 | 0.0 | 0.0 | 0.00 | 0.00 | 0.00 | 95 | 1015.2 |
| 20260507020007 | 3 | 0 | 0.0 | 0.0 | 0.00 | 0.00 | 0.00 | 95 | 1015.3 |
| 20260507015507 | 3 | 0 | 0.0 | 0.0 | 0.00 | 0.00 | 0.00 | 95 | 1015.3 |
| 20260507015007 | 3 | 0 | 0.0 | 0.0 | 0.00 | 0.00 | 0.00 | 95 | 1015.4 |
| 20260507014506 | 3 | 0 | 0.0 | 0.0 | 0.00 | 0.00 | 0.00 | 95 | 1015.4 |
| 20260507014007 | 3 | 0 | 0.0 | 0.0 | 0.00 | 0.00 | 0.00 | 95 | 1015.4 |
| 20260507013507 | 3 | 0 | 0.0 | 0.0 | 0.00 | 0.00 | 0.00 | 95 | 1015.4 |
| 20260507013007 | 3 | 0 | 0.0 | 3.2 | 0.00 | 0.00 | 0.00 | 95 | 1015.5 |
| 20260507012507 | 3 | 0 | 0.0 | 3.2 | 0.00 | 0.00 | 0.00 | 95 | 1015.5 |
| 20260507012007 | 2 | 0 | 0.0 | 3.2 | 0.00 | 0.00 | 0.00 | 95 | 1015.5 |
| 20260507011508 | 2 | 0 | 0.0 | 0.0 | 0.00 | 0.00 | 0.00 | 95 | 1015.5 |
| 20260507011237 | 2 | 0 | 0.0 | 3.2 | 0.00 | 0.00 | 0.00 | 94 | 1015.5 |
| 20260507010503 | 2 | 0 | 0.0 | 3.2 | 0.00 | 0.00 | 0.00 | 94 | 1015.5 |
| 20260507010003 | 2 | 0 | 0.0 | 0.0 | 0.00 | 0.00 | 0.00 | 94 | 1015.5 |
| 20260507005505 | 2 | 0 | 0.0 | 0.0 | 0.00 | 0.00 | 0.00 | 94 | 1015.5 |
| 20260507004505 | 2 | 0 | 0.0 | 0.0 | 0.00 | 0.00 | 0.00 | 94 | 1015.5 |
| 20260507003727 | 2 | 0 | 0.0 | 0.0 | 0.00 | 0.00 | 0.00 | 93 | 1015.5 |
| 20260507003227 | 2 | 0 | 0.0 | 0.0 | 0.00 | 0.00 | 0.00 | 94 | 1015.5 |
| 20260507002003 | 2 | 0 | 0.0 | 0.0 | 0.00 | 0.00 | 0.00 | 93 | 1015.5 |
| 20260506235730 | 3 | 0 | 0.0 | 0.0 | 0.00 | 0.00 | 0.00 | 93 | 1015.8 |
| 20260506235002 | 2 | 0 | 0.0 | 0.0 | 0.00 | 0.00 | 0.00 | 93 | 1015.8 |
| 20260506234003 | 3 | 0 | 0.0 | 0.0 | 0.00 | 0.00 | 0.00 | 92 | 1015.8 |
| 20260506233728 | 3 | 0 | 0.0 | 0.0 | 0.00 | 0.00 | 0.00 | 92 | 1015.8 |
| 20260506233228 | 3 | 0 | 0.0 | 0.0 | 0.00 | 0.00 | 0.00 | 92 | 1015.7 |
| 20260506232503 | 3 | 0 | 0.0 | 0.0 | 0.00 | 0.00 | 0.00 | 92 | 1015.7 |
| 20260506232003 | 3 | 0 | 0.0 | 0.0 | 0.00 | 0.00 | 0.00 | 92 | 1015.8 |
| 20260506231504 | 3 | 0 | 0.0 | 0.0 | 0.00 | 0.00 | 0.00 | 92 | 1015.8 |
| 20260506231004 | 3 | 0 | 0.0 | 0.0 | 0.00 | 0.00 | 0.00 | 91 | 1015.8 |
| 20260506230500 | 3 | 0 | 0.0 | 0.0 | 0.00 | 0.00 | 0.00 | 91 | 1015.7 |
| 20260506225957 | 3 | 0 | 0.0 | 0.0 | 0.00 | 0.00 | 0.00 | 91 | 1015.8 |
| 20260506225458 | 3 | 0 | 0.0 | 0.0 | 0.00 | 0.00 | 0.00 | 90 | 1015.8 |
| 20260506224958 | 3 | 0 | 0.0 | 0.0 | 0.00 | 0.00 | 0.00 | 90 | 1015.8 |
| 20260506224458 | 3 | 0 | 0.0 | 0.0 | 0.00 | 0.00 | 0.00 | 90 | 1015.9 |
| 20260506223959 | 3 | 0 | 0.0 | 0.0 | 0.00 | 0.00 | 0.00 | 90 | 1015.9 |
| 20260506223458 | 3 | 0 | 0.0 | 0.0 | 0.00 | 0.00 | 0.00 | 90 | 1015.9 |
| 20260506222958 | 3 | 0 | 0.0 | 0.0 | 0.00 | 0.00 | 0.00 | 90 | 1016.0 |
| 20260506222459 | 3 | 0 | 0.0 | 0.0 | 0.00 | 0.00 | 0.00 | 89 | 1015.9 |
| 20260506221959 | 3 | 0 | 0.0 | 0.0 | 0.00 | 0.00 | 0.00 | 89 | 1015.9 |
| 20260506221458 | 3 | 0 | 0.0 | 0.0 | 0.00 | 0.00 | 0.00 | 89 | 1015.9 |
| 20260506220957 | 4 | 0 | 0.0 | 0.0 | 0.00 | 0.00 | 0.00 | 89 | 1015.9 |
| 20260506220456 | 4 | 0 | 0.0 | 0.0 | 0.00 | 0.00 | 0.00 | 89 | 1015.9 |
| 20260506215956 | 4 | 0 | 0.0 | 0.0 | 0.00 | 0.00 | 0.00 | 88 | 1015.9 |
| 20260506215456 | 5 | 0 | 0.0 | 0.0 | 0.00 | 0.00 | 0.00 | 88 | 1015.9 |
| 20260506214956 | 5 | 0 | 0.0 | 0.0 | 0.00 | 0.00 | 0.00 | 88 | 1015.8 |
| 20260506214456 | 5 | 0 | 0.0 | 1.6 | 0.00 | 0.00 | 0.00 | 88 | 1015.8 |
| 20260506213956 | 5 | 0 | 0.0 | 1.6 | 0.00 | 0.00 | 0.00 | 88 | 1015.7 |
| 20260506213456 | 5 | 0 | 0.0 | 3.2 | 0.00 | 0.00 | 0.00 | 87 | 1015.7 |
| 20260506212957 | 5 | 0 | 0.0 | 3.2 | 0.00 | 0.00 | 0.00 | 87 | 1015.7 |
| 20260506212457 | 5 | 0 | 0.0 | 3.2 | 0.00 | 0.00 | 0.00 | 87 | 1015.7 |
| 20260506211956 | 5 | 0 | 0.0 | 1.6 | 0.00 | 0.00 | 0.00 | 86 | 1015.6 |
| 20260506211456 | 5 | 0 | 0.0 | 3.2 | 0.00 | 0.00 | 0.00 | 86 | 1015.6 |
| 20260506210952 | 5 | 0 | 0.0 | 3.2 | 0.00 | 0.00 | 0.00 | 86 | 1015.6 |
| 20260506210453 | 5 | 0 | 0.0 | 3.2 | 0.00 | 0.00 | 0.00 | 85 | 1015.6 |
| 20260506205954 | 5 | 0 | 0.0 | 4.8 | 0.00 | 0.00 | 0.00 | 85 | 1015.6 |
| 20260506205454 | 6 | 110 | 0.0 | 4.8 | 0.00 | 0.00 | 0.00 | 85 | 1015.5 |
| 20260506204955 | 6 | 0 | 0.0 | 4.8 | 0.00 | 0.00 | 0.00 | 84 | 1015.5 |
| 20260506204454 | 6 | 0 | 0.0 | 4.8 | 0.00 | 0.00 | 0.00 | 84 | 1015.5 |
| 20260506203955 | 6 | 0 | 0.0 | 4.8 | 0.00 | 0.00 | 0.00 | 83 | 1015.4 |
| 20260506203455 | 6 | 94 | 1.6 | 4.8 | 0.00 | 0.00 | 0.00 | 83 | 1015.4 |
| 20260506202951 | 6 | 0 | 1.6 | 8.0 | 0.00 | 0.00 | 0.00 | 82 | 1015.4 |
| 20260506202450 | 6 | 0 | 1.6 | 8.0 | 0.00 | 0.00 | 0.00 | 82 | 1015.3 |
| 20260506201951 | 6 | 106 | 1.6 | 8.0 | 0.00 | 0.00 | 0.00 | 81 | 1015.3 |
| 20260506201451 | 6 | 0 | 0.0 | 4.8 | 0.00 | 0.00 | 0.00 | 80 | 1015.3 |
| 20260506200952 | 7 | 0 | 1.6 | 8.0 | 0.00 | 0.00 | 0.00 | 79 | 1015.3 |
| 20260506200450 | 7 | 0 | 1.6 | 8.0 | 0.00 | 0.00 | 0.00 | 79 | 1015.1 |
| 20260506195949 | 7 | 117 | 0.0 | 4.8 | 0.00 | 0.00 | 0.00 | 78 | 1015.1 |
| 20260506195449 | 7 | 0 | 0.0 | 4.8 | 0.00 | 0.00 | 0.00 | 78 | 1015.1 |
| 20260506194949 | 7 | 0 | 0.0 | 6.4 | 0.00 | 0.00 | 0.00 | 77 | 1015.1 |
| 20260506194449 | 7 | 0 | 0.0 | 6.4 | 0.00 | 0.00 | 0.00 | 77 | 1015.1 |
| 20260506193949 | 7 | 0 | 1.6 | 6.4 | 0.00 | 0.00 | 0.00 | 77 | 1015.1 |
| 20260506193449 | 7 | 0 | 1.6 | 6.4 | 0.00 | 0.00 | 0.00 | 77 | 1015.1 |
| 20260506192947 | 8 | 74 | 1.6 | 6.4 | 0.00 | 0.00 | 0.00 | 77 | 1015.0 |
| 20260506192447 | 8 | 0 | 1.6 | 6.4 | 0.00 | 0.00 | 0.00 | 77 | 1015.0 |
| 20260506191946 | 8 | 0 | 1.6 | 8.0 | 0.00 | 0.00 | 0.00 | 76 | 1015.0 |
| 20260506191447 | 8 | 340 | 1.6 | 8.0 | 0.00 | 0.00 | 0.00 | 76 | 1015.0 |
| 20260506190948 | 8 | 158 | 1.6 | 6.4 | 0.00 | 0.00 | 0.00 | 76 | 1015.0 |
| 20260506190447 | 8 | 68 | 1.6 | 6.4 | 0.00 | 0.00 | 0.00 | 76 | 1015.0 |
| 20260506185943 | 8 | 69 | 1.6 | 6.4 | 0.00 | 0.00 | 0.00 | 75 | 1015.0 |
| 20260506185442 | 8 | 230 | 1.6 | 4.8 | 0.00 | 0.00 | 0.00 | 75 | 1014.9 |
| 20260506184941 | 8 | 298 | 1.6 | 8.0 | 0.00 | 0.00 | 0.00 | 74 | 1014.9 |
| 20260506184439 | 8 | 39 | 1.6 | 8.0 | 0.00 | 0.00 | 0.00 | 74 | 1014.9 |
| 20260506183939 | 8 | 71 | 1.6 | 9.7 | 0.00 | 0.00 | 0.00 | 74 | 1014.9 |
| 20260506183441 | 8 | 192 | 1.6 | 9.7 | 0.00 | 0.00 | 0.00 | 74 | 1014.9 |
| 20260506182937 | 8 | 83 | 3.2 | 8.0 | 0.00 | 0.00 | 0.00 | 74 | 1014.9 |
| 20260506182438 | 8 | 193 | 3.2 | 12.9 | 0.00 | 0.00 | 0.00 | 74 | 1014.9 |
| 20260506181938 | 8 | 237 | 3.2 | 12.9 | 0.00 | 0.00 | 0.00 | 74 | 1014.9 |
| 20260506181439 | 8 | 74 | 1.6 | 8.0 | 0.00 | 0.00 | 0.00 | 73 | 1014.8 |
| 20260506180938 | 8 | 0 | 1.6 | 8.0 | 0.00 | 0.00 | 0.00 | 73 | 1014.8 |
| 20260506180438 | 8 | 10 | 1.6 | 8.0 | 0.00 | 0.00 | 0.00 | 73 | 1014.8 |
| 20260506175938 | 8 | 310 | 1.6 | 9.7 | 0.00 | 0.00 | 0.00 | 73 | 1014.8 |
| 20260506175436 | 9 | 12 | 3.2 | 9.7 | 0.00 | 0.00 | 0.00 | 72 | 1014.8 |
| 20260506174935 | 9 | 149 | 1.6 | 8.0 | 0.00 | 0.00 | 0.00 | 72 | 1014.7 |
| 20260506174435 | 9 | 79 | 1.6 | 8.0 | 0.00 | 0.00 | 0.00 | 72 | 1014.7 |
| 20260506173935 | 9 | 269 | 1.6 | 8.0 | 0.00 | 0.00 | 0.00 | 72 | 1014.7 |
| 20260506173434 | 9 | 71 | 1.6 | 8.0 | 0.00 | 0.00 | 0.00 | 72 | 1014.7 |
| 20260506172934 | 9 | 0 | 1.6 | 6.4 | 0.00 | 0.00 | 0.00 | 71 | 1014.7 |
| 20260506172434 | 9 | 0 | 1.6 | 8.0 | 0.00 | 0.00 | 0.00 | 71 | 1014.6 |
| 20260506171934 | 9 | 0 | 1.6 | 8.0 | 0.00 | 0.00 | 0.00 | 71 | 1014.6 |
| 20260506171433 | 9 | 23 | 3.2 | 8.0 | 0.00 | 0.00 | 0.00 | 71 | 1014.6 |
| 20260506170933 | 9 | 245 | 3.2 | 9.7 | 0.00 | 0.00 | 0.00 | 71 | 1014.6 |
| 20260506170433 | 9 | 65 | 3.2 | 9.7 | 0.00 | 0.00 | 0.00 | 70 | 1014.6 |
| 20260506165932 | 10 | 337 | 3.2 | 9.7 | 0.00 | 0.00 | 0.00 | 70 | 1014.5 |
| 20260506165431 | 10 | 349 | 3.2 | 9.7 | 0.00 | 0.00 | 0.00 | 70 | 1014.5 |
| 20260506164928 | 10 | 25 | 3.2 | 8.0 | 0.00 | 0.00 | 0.00 | 71 | 1014.5 |
| 20260506164428 | 10 | 41 | 3.2 | 6.4 | 0.00 | 0.00 | 0.00 | 71 | 1014.5 |
| 20260506163925 | 10 | 149 | 3.2 | 8.0 | 0.00 | 0.00 | 0.00 | 70 | 1014.6 |
| 20260506163425 | 10 | 291 | 3.2 | 8.0 | 0.00 | 0.00 | 0.00 | 69 | 1014.5 |
| 20260506162926 | 10 | 60 | 3.2 | 11.3 | 0.00 | 0.00 | 0.00 | 68 | 1014.5 |
| 20260506162426 | 10 | 60 | 3.2 | 11.3 | 0.00 | 0.00 | 0.00 | 68 | 1014.5 |
| 20260506161925 | 10 | 349 | 1.6 | 8.0 | 0.00 | 0.00 | 0.00 | 68 | 1014.5 |
| 20260506161425 | 10 | 129 | 3.2 | 8.0 | 0.00 | 0.00 | 0.00 | 68 | 1014.5 |
| 20260506160925 | 10 | 83 | 3.2 | 9.7 | 0.00 | 0.00 | 0.00 | 68 | 1014.5 |
| 20260506160424 | 10 | 33 | 3.2 | 12.9 | 0.00 | 0.00 | 0.00 | 68 | 1014.5 |
| 20260506155923 | 10 | 4 | 3.2 | 12.9 | 0.00 | 0.00 | 0.00 | 67 | 1014.5 |
| 20260506155424 | 10 | 49 | 3.2 | 11.3 | 0.00 | 0.00 | 0.00 | 69 | 1014.5 |
| 20260506154920 | 10 | 167 | 3.2 | 11.3 | 0.00 | 0.00 | 0.00 | 68 | 1014.5 |
| 20260506154417 | 10 | 94 | 3.2 | 9.7 | 0.00 | 0.00 | 0.00 | 68 | 1014.5 |
| 20260506153917 | 10 | 202 | 3.2 | 9.7 | 0.00 | 0.00 | 0.00 | 68 | 1014.4 |
| 20260506153414 | 10 | 102 | 4.8 | 9.7 | 0.00 | 0.00 | 0.00 | 69 | 1014.5 |
| 20260506152914 | 10 | 87 | 3.2 | 11.3 | 0.00 | 0.00 | 0.00 | 68 | 1014.5 |